[[{"header":{"parameterUnit":"m.s-1","parameterCategory":1,"la1":30.2991,"la2":30.254,"lo1":-89.0895,"lo2":-89.0444,"dy":0.0017,"dx":0.0017,"nx":28,"ny":28,"refTime":"2025-07-09T21:00:00:Z","depth":0,"parameterNumber":2,"parameterNumberName":"U-component_of_WINDS"},"data":[0,0,0,0,0,0,0,0,0,0,0,0,0,0,0,0,0,0,0,0,0,0,0,0,0,0,0,0,0,0,0,0,0,0,0,0,0,0,0,0,0,0,0,0,0,0,0,0,0,0,0,0,0,0,0,0,0,0,2.6801,2.6801,0,2.6861,2.6862,2.6863,2.6855,2.6854,2.6853,2.6852,2.6915,2.6917,2.692,0,0,0,0,0,0,0,0,0,0,0,0,0,2.668,2.6682,2.6801,2.6802,2.6802,2.6861,2.6862,2.6863,2.6855,2.6853,2.6852,2.6851,2.6914,2.6917,2.692,0,0,0,0,0,0,0,0,0,0,0,0,0,2.6735,2.6683,2.6801,2.6805,2.6806,2.6861,2.6862,2.6863,2.6855,2.6853,2.6852,2.6851,2.6913,2.6917,2.692,2.6975,0,0,2.6932,2.6934,0,0,0,0,0,0,0,0,2.6732,2.674,2.6804,2.6805,2.6806,2.6849,2.6842,2.6901,2.6855,2.6837,2.6852,2.685,2.6894,2.6899,2.6914,2.6978,2.698,2.6933,2.6935,2.6937,2.6938,0,0,0,0,0,0,0,2.6728,2.6737,2.6825,2.6805,2.6806,2.6805,2.6811,2.6853,2.6873,2.6838,2.6838,2.6845,2.6894,2.691,2.6915,2.6981,2.6933,2.6936,2.6939,2.694,2.7093,2.7095,0,0,0,0,0,0,2.6723,2.6734,2.6823,2.6827,2.6765,2.6808,2.6815,2.6837,2.6872,2.6876,2.6846,2.6844,2.6904,2.6911,2.6918,2.6984,2.6937,2.694,2.6943,2.7091,2.7094,2.7095,0,0,0,0,0,0,2.6721,2.6731,2.682,2.678,2.6791,2.6812,2.6836,2.6839,2.6855,2.6879,2.6882,2.6859,2.6903,2.6912,2.6961,2.6986,2.6942,2.6946,2.7089,2.7092,2.7094,2.7117,0,0,0,0,0,0,2.6717,2.673,2.6751,2.6781,2.6794,2.6862,2.6838,2.6841,2.6861,2.6859,2.6891,2.6895,2.6903,2.6955,2.6965,2.6991,2.6949,2.7087,2.7091,2.7094,2.7114,2.712,2.7126,0,0,0,0,0,2.6713,2.6755,2.6752,2.6763,2.682,2.6864,2.6871,2.6879,2.6863,2.6884,2.69,2.6894,2.6982,2.696,2.6971,2.6999,2.7086,2.709,2.7093,2.7112,2.7119,2.7125,0,0,0,0,0,0,2.6728,2.6759,2.6756,2.6809,2.6834,2.6862,2.6889,2.6886,2.6916,2.6913,2.6922,2.6929,2.6978,2.6993,2.6968,2.7053,2.7032,2.7038,2.7042,2.7049,2.7055,2.705,2.6952,0,0,0,0,0,2.6737,2.677,2.6795,2.684,2.6852,2.6868,2.6888,2.6892,2.6918,2.6928,2.6947,2.6973,2.7007,2.7029,2.7061,2.7116,2.7124,2.7141,2.7146,2.7151,2.7156,2.7188,2.7196,2.7108,2.7108,2.7108,0,0,2.6757,2.6778,2.6798,2.6843,2.6863,2.6897,2.6877,2.6914,2.694,2.6934,2.6981,2.6996,2.7026,2.7078,2.7102,2.7092,2.7182,2.7156,2.7159,2.7162,2.7192,2.7201,2.7208,2.7111,2.711,2.711,0,0,2.6811,2.683,2.6869,2.6889,2.6919,2.693,2.6939,2.6968,2.6978,2.7025,2.7022,2.7052,2.7109,2.7131,2.7149,2.7211,2.7208,2.7222,2.7251,2.7281,2.7288,2.7294,2.7317,2.7326,2.7227,2.7227,2.7227,0,2.6832,2.6883,2.689,2.6927,2.6948,2.6943,2.6984,2.7003,2.7042,2.7056,2.7044,2.7116,2.7136,2.7193,2.7209,2.7223,2.7235,2.7218,2.7287,2.7293,2.7299,2.7321,2.7329,2.7228,2.7228,2.7228,2.7228,0,2.6908,2.6944,2.6972,2.7009,2.7033,2.7071,2.7084,2.7107,2.7109,2.7121,2.7169,2.7193,2.723,2.7243,2.7246,2.7302,2.7295,2.7284,2.7263,2.7309,2.733,2.7338,2.7231,2.723,2.723,2.7229,0,0,2.6974,2.7014,2.7025,2.7042,2.7075,2.7103,2.7141,2.7177,2.7197,2.7224,2.7257,2.7305,2.7296,2.7317,2.7322,2.7348,2.7397,2.7335,2.7336,2.7346,2.7461,2.747,2.7479,2.7394,2.7396,2.7397,2.7459,0,2.7032,2.71,2.7107,2.7168,2.7202,2.7198,2.7232,2.7256,2.7268,2.7298,2.7312,2.7346,2.7331,2.7344,2.737,2.7386,2.742,2.7381,2.7426,2.7428,2.742,2.749,2.7499,2.7556,2.7467,2.7469,2.747,0,2.7109,2.7138,2.7202,2.7231,2.7245,2.7275,2.7309,2.7337,2.7365,2.7372,2.7395,2.7396,2.7436,2.7413,2.7469,2.7442,2.7461,2.7471,2.7474,2.7479,2.7452,2.7498,2.7575,2.7584,2.7483,2.7481,2.7481,0,2.7151,2.7206,2.7252,2.7267,2.7301,2.7323,2.7338,2.7364,2.7385,2.7414,2.7428,2.7462,2.7481,2.7507,2.7517,2.7499,2.7574,2.755,2.7581,2.7581,2.7598,2.7597,2.768,2.7608,2.7608,2.7608,2.7608,0,2.7216,2.7256,2.7272,2.7301,2.7345,2.7353,2.7397,2.7411,2.7434,2.7466,2.7465,2.7494,2.7505,2.7537,2.7545,2.7591,2.7599,2.7607,2.7608,2.7607,2.7607,2.762,2.7617,2.761,2.761,2.7609,2.7609,0,2.7272,2.7284,2.7334,2.7362,2.737,2.7402,2.7426,2.7454,2.7465,2.7505,2.7515,2.7533,2.757,2.7583,2.7628,2.7633,2.7687,2.7685,2.7678,2.7679,2.7709,2.7706,2.7805,2.7818,2.7737,2.7738,2.7738,0,2.7313,2.7344,2.7375,2.7396,2.7412,2.7445,2.7467,2.7476,2.7498,2.7532,2.7555,2.7592,2.7622,2.7681,2.7699,2.7733,2.7733,2.7765,2.7738,2.7736,2.7735,2.7733,2.7737,2.777,2.7771,2.7772,2.7772,0,2.7385,2.7389,2.742,2.7454,2.748,2.7507,2.7532,2.755,2.7562,2.7588,2.7626,2.7649,2.7694,2.7731,2.7766,2.7782,2.778,2.778,2.779,2.7789,2.7784,2.7789,2.7693,2.7778,2.7778,2.7777,2.7777,2.7777,2.7435,2.7463,2.7489,2.7524,2.7544,2.7568,2.7596,2.7611,2.7642,2.768,2.7683,2.7724,2.7751,2.7798,2.7815,2.7848,2.7839,2.7852,2.7856,2.7859,2.7862,2.7778,2.7854,2.7854,2.7854,2.7854,2.7854,0,2.7508,2.7525,2.7557,2.7593,2.762,2.7615,2.7643,2.7667,2.7703,2.7728,2.7757,2.7801,2.7836,2.7856,2.7892,2.7914,2.7914,2.7923,2.7922,2.7926,2.7867,2.7856,2.7923,2.7923,2.7923,2.7923,2.7923,2.7923,2.7549,2.7596,2.7603,2.766,2.7676,2.7716,2.7733,2.7755,2.7775,2.7824,2.7853,2.7866,2.7889,2.7927,2.7959,2.7964,2.7978,2.7988,2.7993,2.7937,2.793,2.7924,2.7913,2.7991,2.7991,2.8049,2.805,2.805]},{"header":{"parameterUnit":"m.s-1","parameterCategory":1,"la1":30.2991,"la2":30.254,"lo1":-89.0895,"lo2":-89.0444,"dy":0.0017,"dx":0.0017,"nx":28,"ny":28,"refTime":"2025-07-09T21:00:00:Z","depth":0,"parameterNumber":3,"parameterNumberName":"V-component_of_WINDS"},"data":[0,0,0,0,0,0,0,0,0,0,0,0,0,0,0,0,0,0,0,0,0,0,0,0,0,0,0,0,0,0,0,0,0,0,0,0,0,0,0,0,0,0,0,0,0,0,0,0,0,0,0,0,0,0,0,0,0,0,-0.4316,-0.4316,0,-0.4296,-0.4296,-0.4295,-0.4293,-0.4294,-0.4294,-0.4294,-0.4272,-0.4271,-0.4271,0,0,0,0,0,0,0,0,0,0,0,0,0,-0.4355,-0.4354,-0.4316,-0.4316,-0.4316,-0.4296,-0.4296,-0.4295,-0.4293,-0.4294,-0.4294,-0.4294,-0.4272,-0.4272,-0.4271,0,0,0,0,0,0,0,0,0,0,0,0,0,-0.4337,-0.4354,-0.4317,-0.4313,-0.4312,-0.4296,-0.4295,-0.4295,-0.4293,-0.4294,-0.4294,-0.4294,-0.4273,-0.4272,-0.427,-0.4256,0,0,-0.4267,-0.4266,0,0,0,0,0,0,0,0,-0.4338,-0.4335,-0.4313,-0.4313,-0.4312,-0.4298,-0.4301,-0.4282,-0.4293,-0.43,-0.4294,-0.4295,-0.428,-0.4279,-0.4274,-0.4255,-0.4254,-0.4267,-0.4266,-0.4265,-0.4265,0,0,0,0,0,0,0,-0.4339,-0.4336,-0.4308,-0.4313,-0.4312,-0.4312,-0.431,-0.4297,-0.4289,-0.43,-0.43,-0.4297,-0.428,-0.4275,-0.4273,-0.4254,-0.4267,-0.4266,-0.4265,-0.4264,-0.4225,-0.4224,0,0,0,0,0,0,-0.4341,-0.4337,-0.4309,-0.4308,-0.4326,-0.4311,-0.4309,-0.4302,-0.4289,-0.4287,-0.4297,-0.4297,-0.4277,-0.4275,-0.4273,-0.4256,-0.4265,-0.4264,-0.4264,-0.4225,-0.4225,-0.4224,0,0,0,0,0,0,-0.4342,-0.4338,-0.431,-0.4322,-0.4319,-0.431,-0.4303,-0.4301,-0.4296,-0.4287,-0.4285,-0.4293,-0.4277,-0.4274,-0.4261,-0.4255,-0.4264,-0.4263,-0.4225,-0.4225,-0.4224,-0.4223,0,0,0,0,0,0,-0.4343,-0.4339,-0.4333,-0.4322,-0.4318,-0.4298,-0.4302,-0.4301,-0.4294,-0.4295,-0.4283,-0.4281,-0.4277,-0.4263,-0.426,-0.4254,-0.4262,-0.4226,-0.4225,-0.4225,-0.4223,-0.4222,-0.4221,0,0,0,0,0,-0.4344,-0.4333,-0.4333,-0.4329,-0.4311,-0.4298,-0.4295,-0.4291,-0.4294,-0.4288,-0.4283,-0.4282,-0.4257,-0.4261,-0.4258,-0.4252,-0.4226,-0.4225,-0.4225,-0.4224,-0.4222,-0.4221,0,0,0,0,0,0,-0.4342,-0.4331,-0.4331,-0.4316,-0.4308,-0.4298,-0.429,-0.4289,-0.428,-0.4281,-0.4275,-0.4273,-0.426,-0.4254,-0.426,-0.4238,-0.4242,-0.424,-0.4242,-0.4241,-0.424,-0.4241,-0.4261,0,0,0,0,0,-0.4341,-0.4331,-0.4322,-0.4309,-0.4305,-0.4299,-0.4293,-0.429,-0.4282,-0.4278,-0.4271,-0.4263,-0.4253,-0.4247,-0.4237,-0.4223,-0.4221,-0.4217,-0.4216,-0.4215,-0.4214,-0.4207,-0.4206,-0.4222,-0.4222,-0.4222,0,0,-0.4336,-0.4329,-0.4323,-0.4309,-0.4302,-0.4293,-0.4296,-0.4285,-0.4278,-0.4276,-0.4263,-0.4258,-0.4249,-0.4235,-0.4229,-0.423,-0.4209,-0.4214,-0.4214,-0.4213,-0.4206,-0.4205,-0.4203,-0.4221,-0.4221,-0.4221,0,0,-0.4323,-0.4316,-0.4305,-0.4299,-0.429,-0.4286,-0.4283,-0.4273,-0.427,-0.4257,-0.4256,-0.4248,-0.4231,-0.4225,-0.4219,-0.4206,-0.4205,-0.4203,-0.4198,-0.4191,-0.419,-0.4189,-0.4185,-0.4183,-0.4202,-0.4202,-0.4202,0,-0.4318,-0.4304,-0.43,-0.429,-0.4284,-0.4283,-0.4273,-0.4267,-0.4255,-0.4251,-0.4253,-0.4233,-0.4226,-0.4212,-0.4209,-0.4204,-0.4202,-0.4204,-0.4191,-0.4189,-0.4188,-0.4184,-0.4183,-0.4202,-0.4202,-0.4202,-0.4202,0,-0.4299,-0.4289,-0.4282,-0.4271,-0.4265,-0.4254,-0.4249,-0.4243,-0.4242,-0.4238,-0.4226,-0.4218,-0.4207,-0.4204,-0.4202,-0.4189,-0.4191,-0.4192,-0.4195,-0.4187,-0.4183,-0.4181,-0.4201,-0.4201,-0.4202,-0.4202,0,0,-0.4283,-0.4271,-0.4269,-0.4265,-0.4255,-0.4247,-0.4238,-0.4228,-0.4223,-0.4215,-0.4207,-0.4194,-0.4196,-0.4189,-0.4187,-0.4181,-0.4172,-0.4183,-0.4183,-0.4182,-0.4159,-0.4158,-0.4157,-0.4172,-0.4172,-0.4171,-0.416,0,-0.4269,-0.4252,-0.4249,-0.4234,-0.4226,-0.4225,-0.4217,-0.4211,-0.4207,-0.4199,-0.4195,-0.4186,-0.4188,-0.4185,-0.4179,-0.4174,-0.4168,-0.4175,-0.4165,-0.4164,-0.4167,-0.4154,-0.4153,-0.4143,-0.4158,-0.4158,-0.4158,0,-0.425,-0.4243,-0.4227,-0.422,-0.4217,-0.4209,-0.4201,-0.4194,-0.4187,-0.4184,-0.4178,-0.4177,-0.4168,-0.4172,-0.4159,-0.4165,-0.416,-0.4158,-0.4157,-0.4156,-0.4161,-0.4153,-0.4139,-0.4138,-0.4155,-0.4156,-0.4156,0,-0.4241,-0.4227,-0.4216,-0.4212,-0.4204,-0.4199,-0.4195,-0.4188,-0.4183,-0.4176,-0.4173,-0.4164,-0.416,-0.4154,-0.415,-0.4154,-0.4138,-0.4142,-0.4136,-0.4137,-0.4133,-0.4133,-0.4118,-0.413,-0.413,-0.413,-0.413,0,-0.4226,-0.4216,-0.4212,-0.4205,-0.4195,-0.4193,-0.4183,-0.4179,-0.4173,-0.4166,-0.4166,-0.4159,-0.4155,-0.4148,-0.4145,-0.4136,-0.4134,-0.4132,-0.4131,-0.4132,-0.4132,-0.4129,-0.413,-0.413,-0.413,-0.413,-0.413,0,-0.4213,-0.421,-0.4198,-0.4192,-0.419,-0.4183,-0.4177,-0.4171,-0.4168,-0.4159,-0.4157,-0.4152,-0.4144,-0.414,-0.413,-0.4128,-0.4118,-0.4117,-0.412,-0.412,-0.4115,-0.4115,-0.4097,-0.4095,-0.4108,-0.4108,-0.4108,0,-0.4203,-0.4196,-0.4189,-0.4185,-0.4181,-0.4174,-0.4169,-0.4167,-0.4162,-0.4154,-0.4149,-0.4141,-0.4135,-0.4122,-0.4118,-0.411,-0.411,-0.4104,-0.4109,-0.411,-0.411,-0.4111,-0.411,-0.4103,-0.4103,-0.4103,-0.4103,0,-0.4187,-0.4186,-0.4179,-0.4173,-0.4167,-0.4161,-0.4156,-0.4152,-0.4149,-0.4144,-0.4136,-0.4131,-0.4121,-0.4114,-0.4106,-0.4102,-0.4102,-0.4102,-0.41,-0.4101,-0.4103,-0.4102,-0.4118,-0.4102,-0.4102,-0.4102,-0.4102,-0.4102,-0.4176,-0.417,-0.4165,-0.4158,-0.4154,-0.4149,-0.4143,-0.414,-0.4134,-0.4126,-0.4125,-0.4117,-0.4111,-0.4101,-0.4098,-0.4091,-0.4093,-0.409,-0.409,-0.4089,-0.4089,-0.4104,-0.409,-0.409,-0.409,-0.409,-0.409,0,-0.416,-0.4157,-0.4151,-0.4143,-0.4138,-0.4139,-0.4134,-0.4129,-0.4122,-0.4117,-0.4111,-0.4103,-0.4096,-0.4091,-0.4085,-0.4081,-0.408,-0.4079,-0.4079,-0.4078,-0.4088,-0.409,-0.4079,-0.4079,-0.4079,-0.4079,-0.4079,-0.4079,-0.4151,-0.4142,-0.4141,-0.413,-0.4127,-0.4119,-0.4116,-0.4112,-0.4108,-0.4099,-0.4093,-0.4091,-0.4086,-0.408,-0.4073,-0.4072,-0.407,-0.4068,-0.4067,-0.4076,-0.4077,-0.4079,-0.4081,-0.4068,-0.4068,-0.4058,-0.4058,-0.4058]}]]